Regional Weather Roundup
Issued by NWS

Home | Current Version | Previous Version | Text Only | Print | Product List | Glossary Off
Versions: 1 2 3 4 5 6 7 8 9 10 11 12 13 14 15 16 17 18 19 20 21 22 23 24 25 26 27 28 29 30 31 32 33 34 35 36 37 38 39 40 41 42 43 44 45 46 47 48 49 50

000
ASUS43 KLMK 041010
RWRKY
KENTUCKY REGIONAL WEATHER ROUNDUP
NATIONAL WEATHER SERVICE LOUISVILLE KY
500 AM EST WED MAR 04 2015

NOTE "FAIR" INDICATES FEW OR NO CLOUDS BELOW 12,000 FEET
WITH NO SIGNIFICANT WEATHER AND/OR OBSTRUCTIONS TO VISIBILITY.

KYZ001>023-026-027-061>063-070>075-041100-
WESTERN AND SOUTH CENTRAL KENTUCKY

CITY           SKY/WX    TMP DP  RH WIND       PRES   REMARKS
PADUCAH        RAIN      43  42  97 N8        29.90S FOG
HENDERSON      CLOUDY    39  37  93 CALM      29.91S
OWENSBORO      LGT RAIN  43  43 100 NE3       29.90F FOG
HOPKINSVILLE   HVY RAIN  45  45 100 N8        29.92R FOG
BOWLING GREEN  LGT RAIN  48  46  93 NE5       29.90R FOG
GLASGOW        RAIN      48  48 100 N7        29.90R
$$

KYZ024-025-028>034-038-045-046-053-041100-
NORTH CENTRAL KENTUCKY

CITY           SKY/WX    TMP DP  RH WIND       PRES   REMARKS
LOUISVILLE/SDF RAIN      43  41  93 CALM      29.91R FOG
LOUISVILLE/LOU RAIN      42  41  96 CALM      29.91S FOG
FORT KNOX      LGT RAIN  43  41  93 NE2       29.87F FOG
$$

KYZ035>037-039>044-047>052-055>060-089>105-041100-
NORTHEAST KENTUCKY

CITY           SKY/WX    TMP DP  RH WIND       PRES   REMARKS
LEXINGTON      RAIN      41  41 100 CALM      29.90S FOG
COVINGTON      RAIN      37  35  92 NW5       29.89S FOG     WCI  33
FRANKFORT      RAIN      41  40  96 CALM      29.90S FOG
$$

KYZ054-064>069-076>088-106>120-041100-
SOUTHEAST KENTUCKY

CITY           SKY/WX    TMP DP  RH WIND       PRES   REMARKS
JACKSON        LGT RAIN  50  49  96 CALM      29.88S
LONDON         LGT RAIN  53  49  86 CALM      29.86S
SOMERSET       DRIZZLE   50  50 100 N10       29.89R
MIDDLESBORO    CLOUDY    57  55  94 S7        29.89F
MONTICELLO     CLOUDY    58  56  93 NW24G30   29.89R
$$




USA.gov is the U.S. government's official web portal to all federal, state and local government web resources and services.